HK6REC-25 Weather Reports


time (UTC)temp
C
wind
direction
speed
KPH
gust
KPH
rain 1hr
cm
rain 24hr
cm
rain mn
cm
humidity
%
barometer
mb
20260507063601 15 315 1.6 1.6 0.00 0.00 0.00 93 1015.0
20260507060600 13 299 1.6 1.6 0.00 0.00 0.00 91 1015.0
20260507053559 14 299 3.2 1.6 0.00 0.00 0.00 91 1015.0
20260507050558 13 301 1.6 1.6 0.00 0.00 0.00 88 1016.0
20260507043557 14 301 3.2 1.6 0.00 0.00 0.00 88 1016.0
20260507040556 13 299 4.8 4.8 0.00 0.00 0.00 83 1016.0
20260507033555 14 299 4.8 4.8 0.00 0.00 0.00 83 1016.0
20260507030553 15 299 4.8 4.8 0.00 0.00 0.00 83 1016.0
20260507023553 13 303 6.4 4.8 0.00 0.00 0.00 82 1015.0
20260507020551 15 303 6.4 4.8 0.00 0.00 0.00 82 1015.0
20260507013550 14 303 6.4 4.8 0.00 0.00 0.00 83 1014.0
20260507010549 14 302 6.4 8.0 0.00 0.00 0.00 85 1014.0
20260507003548 14 302 6.4 8.0 0.00 0.00 0.00 76 1014.0
20260507000547 15 286 6.4 8.0 0.00 0.00 0.00 75 1013.0
20260506233547 16 286 6.4 8.0 0.00 0.00 0.00 75 1012.0
20260506230546 16 288 4.8 8.0 0.00 0.00 0.00 74 1011.0
20260506223545 17 288 4.8 8.0 0.00 0.00 0.00 74 1011.0
20260506220544 18 288 4.8 8.0 0.00 0.00 0.00 74 1010.0
20260506213543 19 288 4.8 8.0 0.00 0.00 0.00 74 1010.0
20260506210542 20 288 4.8 8.0 0.00 0.00 0.00 74 1009.0
20260506203540 21 288 4.8 9.7 0.00 0.00 0.00 74 1009.0
20260506200540 21 290 1.6 6.4 0.00 0.00 0.00 69 1009.0
20260506193539 22 290 3.2 6.4 0.00 0.00 0.00 69 1009.0
20260506190538 22 157 1.6 6.4 0.00 0.00 0.00 72 1010.0
20260506183536 23 157 1.6 6.4 0.00 0.00 0.00 72 1010.0
20260506180535 25 157 1.6 6.4 0.00 0.00 0.00 72 1011.0
20260506173533 26 157 1.6 6.4 0.00 0.00 0.00 72 1011.0
20260506170533 27 157 1.6 6.4 0.00 0.00 0.00 72 1012.0
20260506163532 22 149 1.6 4.8 0.00 0.00 0.00 69 1012.0
20260506160531 23 149 1.6 4.8 0.00 0.00 0.00 69 1014.0
20260506153530 25 149 3.2 4.8 0.00 0.00 0.00 69 1013.0
20260506150529 20 131 3.2 3.2 0.00 0.00 0.00 80 1015.0
20260506143528 16 121 1.6 1.6 0.00 0.00 0.00 85 1015.0
20260506140526 17 121 3.2 1.6 0.00 0.00 0.00 85 1016.0
20260506133525 15 120 1.6 0.0 0.00 0.00 0.00 90 1016.0
20260506130524 16 120 1.6 0.0 0.00 0.00 0.00 90 1016.0
20260506123523 13 120 1.6 0.0 0.00 0.00 0.00 95 1016.0
20260506120522 15 192 0.0 0.0 0.00 0.00 0.00 95 1016.0
20260506113521 12 268 1.6 0.0 0.00 0.00 0.00 94 1015.0
20260506110520 13 268 1.6 0.0 0.00 0.00 0.00 94 1015.0
20260506103519 12 268 1.6 0.0 0.00 0.00 0.00 95 1015.0
20260506093517 13 270 0.0 0.0 0.00 0.00 0.00 95 1014.0
20260506090516 14 288 0.0 0.0 0.00 0.00 0.00 95 1014.0
20260506083515 13 288 0.0 0.0 0.00 0.00 0.00 93 1014.0
20260506080514 13 305 1.6 1.6 0.00 0.00 0.00 94 1014.0
20260506073513 14 305 1.6 1.6 0.00 0.00 0.00 94 1014.0
20260506070512 15 305 3.2 1.6 0.00 0.00 0.00 94 1015.0